QZS-1R (MICHIBIKI-1R)

Last updated on Mon Sep 21 2026 00:03:02 GMT+0000 (Coordinated Universal Time)

1 49336U 21096A 26263.37351418 -.00000233 00000+0 00000+0 0 9991 2 49336 37.6578 78.1756 0744289 269.9801 280.0026 1.00285974 17963
UTC large
Height (km)
Speed (km/s)
/
Latitude / Longitude
Inclination (degrees)
Orbital Period (minutes)
Azimuth
Elevation
Range (km)
Doppler Factor

Next 0 passes for location: London (51.5072 / 0.1276)

No passes found over London.
QZS-1R (MICHIBIKI-1R)